User: anonymous   Login
Location: Unspecified
(0.0000°N, 0.0000°E)
Time: 23:16:15
(UTC+01:00)
Language:

ARIANE 5 R/B - Orbit

View from above orbital plane
View from above orbital plane
View from above satellite
View from above satellite

Ground track
Ground track

The orbit data is extracted from the following two-line orbital elements,

1 28886U 05041C   16335.85336718 -.00000099 +00000-0 -28641-3 0  9995
2 28886 007.9840 075.6309 7185078 312.9086 018.6845 02.24331667091227
Epoch (UTC): 30 November 2016 20:28:50
Eccentricity: 0.7185078
inclination: 7.9840°
perigee height: 560 km
apogee height: 35982 km
right ascension of ascending node: 75.6309°
argument of perigee: 312.9086°
revolutions per day: 2.24331667
mean anomaly at epoch: 18.6845°
orbit number at epoch: 9122

The dashed part of the orbit path shows where the satellite is in the earth's shadow,  

DLR